Regional Weather Roundup
Issued by NWS New Orleans/Baton Rouge, LA

Home | Current Version | Previous Version | Graphics & Text | Print | Product List | Glossary On
Versions: 1 2 3 4 5 6 7 8 9 10 11 12 13 14 15 16 17 18 19 20 21 22 23 24 25 26 27 28 29 30 31 32 33 34 35 36 37 38 39 40 41 42 43 44 45 46 47 48 49 50
709
ASUS44 KLIX 170610
RWRLIX
NEW ORLEANS REGIONAL WEATHER ROUNDUP
NATIONAL WEATHER SERVICE NEW ORLEANS LA
100 AM CDT THU APR 17 2014

NOTE: "FAIR" INDICATES FEW OR NO CLOUDS BELOW 12,000 FEET WITH NO
      SIGNIFICANT WEATHER AND/OR OBSTRUCTIONS TO VISIBILITY.
      SKY/WX - SKY CONDITION AND SIGNIFICANT WEATHER.
      TMP - AIR TEMPERATURE.     DP    - DEWPOINT TEMPERATURE.
      RH  - RELATIVE HUMIDITY.   PRES  - PRESSURE.
      HI  - HEAT INDEX.          WCI   - WIND CHILL INDEX.

*  THESE STATIONS ARE NOT NWS OR FAA STATIONS AND ARE NOT UNDER
   NWS QUALITY CONTROL.

LAZ038-040-048-061>063-065>067-069-170700-
SOUTHEAST LOUISIANA

CITY           SKY/WX    TMP DP  RH WIND       PRES   REMARKS
N.O. AUDUBON     N/A     56  46  69 MISG        N/A
6HR MIN TEMP:  52; 6HR MAX TEMP:  60;

N.O. INTL ARPT   N/A     51  45  79 CALM      30.15F
6HR MIN TEMP:  51; 6HR MAX TEMP:  60;

N.O. LAKEFRONT   N/A     56  49  77 E7        30.15F
6HR MIN TEMP:  53; 6HR MAX TEMP:  58;

N.O. DOWNTOWN*   N/A     57  45  62 SE6       30.15F
6HR MIN TEMP:  55; 6HR MAX TEMP:  61;

SLIDELL          N/A     45  42  89 CALM      30.15F
6HR MIN TEMP:  45; 6HR MAX TEMP:  57;

BATON ROUGE      N/A     48  43  82 E5        30.16S
6HR MIN TEMP:  48; 6HR MAX TEMP:  61;

BOOTHVILLE     CLOUDY    61  49  64 SE10      30.14F
6HR MIN TEMP:  56; 6HR MAX TEMP:  61;

BELLE CHASSE   MOCLDY    49  46  90 CALM      30.14F
6HR MIN TEMP:  46; 6HR MAX TEMP:  57;

BOGALUSA*        N/A     44  41  89 CALM      30.18F
6HR MIN TEMP:  44; 6HR MAX TEMP:  63;

GALLIANO*      CLOUDY    60  49  65 E7        30.14F
6HR MIN TEMP:  55; 6HR MAX TEMP:  60;

NEW ROADS*       N/A     50  43  76 SE5       30.16R
6HR MIN TEMP:  50; 6HR MAX TEMP:  62;

GONZALES*        N/A     48  47  99 CALM      30.16S
6HR MIN TEMP:  47; 6HR MAX TEMP:  60;

HAMMOND*         N/A     45  41  87 CALM      30.17F
HOUMA*           N/A     54  48  82 NE3       30.15S
6HR MIN TEMP:  50; 6HR MAX TEMP:  60;

PORT FOURCHON* CLOUDY    63  50  63 SE13G22   30.14F

$$

MSZ070-080>082-170700-
SOUTHERN MISSISSIPPI

CITY           SKY/WX    TMP DP  RH WIND       PRES   REMARKS
MCCOMB           N/A     45  41  86 CALM      30.16S
6HR MIN TEMP:  44; 6HR MAX TEMP:  62;

GULFPORT         N/A     51  46  83 N3        30.16S
6HR MIN TEMP:  49; 6HR MAX TEMP:  59;

BILOXI           N/A     49  47  93 NE5       30.17S
6HR MIN TEMP:  49; 6HR MAX TEMP:  56;

PASCAGOULA       N/A     46  45  96 CALM      30.17S
6HR MIN TEMP:  46; 6HR MAX TEMP:  57;


$$

COASTAL OBSERVATIONS
LAKE AND NEARSHORE STATIONS

STATION/POSITION TIME  TEMP    WIND        PRES    WAVE
                       AIR SEA DIR/SP/G            HT/PER
                 (UTC) (F)     (DEG/KT/KT) (MB)    (FT/S)
PASCAGOULA       0600   60     120/  7/ 11 1020.8
WAVELAND YACHT   0600   61 64  140/ 12/ 16 1020.2
GRAND ISLE       0600   61 66  110/  6/ 12 1020.7
SOUTHWEST PASS   0600   63 58  110/ 17/ 21 1020.2
NEW CANAL        0600   53 63   80/  2/  4 1021.2
SHELL BEACH      0600   57 62  120/  6/  7 1020.6

OFFSHORE STATIONS

STATION/POSITION TIME  TEMP    WIND        PRES    WAVE
                       AIR SEA DIR/SP/G            HT/PER
                 (UTC) (F)     (DEG/KT/KT) (MB)    (FT/S)
64 S DAUPHIN ISL 0512   65 69  110/ 19/ 25 1020.4

$$




USA.gov is the U.S. government's official web portal to all federal, state and local government web resources and services.